{"data":{"norad_id":69106,"intl_designator":"2026-108C","name":"QIANFAN-147","alt_names":[],"object_type":"PAYLOAD","status":"ACTIVE","operator":null,"country":"PRC","launch_date":"2026-05-17","launch_site_code":"WSC","launch_vehicle":null,"mission":null,"orbit_class":"UNKNOWN","rcs_meters":null,"size_class":null,"mass_kg":null,"dimensions":null,"purposes":[],"wikipedia_slug":null,"has_3d_model":false,"image_url":null,"decayed_at":null,"tle_current":{"epoch":"2026-09-20T03:59:32.804160Z","epoch_age_seconds":52082,"freshness":"FRESH","line1":"1 69106U 26108C   26263.16635190  .00000112  00000+0  15539-3 0  9998","line2":"2 69106  89.0195  12.5717 0002083 103.2845 256.8538 13.51025141 17250","mean_motion":13.51025141,"eccentricity":0.0002083,"inclination_deg":89.0195,"raan_deg":12.5717,"arg_perigee_deg":103.2845,"mean_anomaly_deg":256.8538,"bstar":0.00015539,"rev_number":1725,"period_min":106.58572933248,"perigee_km":1066.9380695636,"apogee_km":1070.0403340393,"semimajor_km":7446.6262018015,"source":"CELESTRAK","updated_at":"2026-09-20T09:00:24.678016Z"}}}